Probability
0 0 0 0 0 0 0 0 0 0 0 0 0 0 0 0 0 0 0 0 0 0 0 0 0 0 0 0 0 0 0 0 0 0 0 0 0 0 0 0 0 0 0 0
0 0 0 0 0 0 0 0 0 0 0 0 0 0 0 0 0 0 0 0 0 0 0 0 0 0 0 0 0 0 0 0 0 0 0 0 0 0 0 0 0 0 0 0
0 0 0 0 0 0 0 0 0 0 0 0 0 0 0 0 0 0 0 0 0 0 0 0 0 0 0 0 0 0 0 0 0 0 0 0 0 0 0 0 0 0 0 0
0 0 0 0 0 0 0 0 0 0 0 0 0 0 0 0 0 0 0 0 0 0 0 0 0 0 0 0 0 0 0 0 0 0 0 0 0 0 0 0 0 0 0 0
0 0 0 0 0 0 0 0 0 0 0 0 0 0 0 0 0 0 0 0 0 0 0 0 0 0 0 0 0 0 0 0 0 0 0 0 0 0 0 0 0 0 0 0
0 0 0 0 0 0 0 0 0 0 0 0 0 0 0 0 0 0 0 0 0 0 0 0 0 0 0 0 0 0 0 0 0 0 0 0 0 0 0 0 0 0 0 0
0 0 0 0 0 0 0 0 0 0 0 0 0 0 0 0 0 0 0 0 0 0 0 0 0 0 0 0 0 0 0 0 0 0 0 0 0 0 0 0 0 0 0 0
0 0 0 0 0 0 0 0 0 0 0 0 0 0 0 0 0 0 0 0 0 0 0 0 0 0 0 0 0 0 0 0 0 0 0 0 0 0 0 0 0 0 0 0
0 0 0 0 0 0 0 0 0 0 0 0 0 0 0 0 0 0 0 0 0 0 0 0 0 0 0 0 0 0 0 0 0 0 0 0 0 0 0 0 0 0 0 0
0 0 0 0 0 0 0 0 0 0 0 0 0 0 0 0 0 0 0 0 0 0 0 0 0 0 0 0 0 0 0 0 0 0 0 0 0 0 0 0 0 0 0 0
0 0 0 0 0 0 0 0 0 0 0 0 0 0 0 0 0 0 0 0 0 0 0 0 0 0 0 0 0 3 3 0 0 0 0 0 0 0 0 0 0 0 0 0
0 0 0 0 0 0 0 0 0 0 0 0 0 0 0 0 0 0 0 0 0 0 0 0 0 0 0 0 0 3 3 0 0 0 0 0 0 0 0 0 0 0 0 0
0 0 0 0 0 0 0 0 0 0 0 0 0 0 0 0 0 0 0 0 0 0 0 0 0 0 0 0 3 3 3 0 0 0 0 0 0 0 0 0 0 0 0 0
0 0 0 0 0 0 0 0 0 0 0 0 0 0 0 0 0 0 0 0 0 0 0 0 0 0 0 0 3 3 3 0 0 0 0 0 0 0 0 0 0 0 0 0
0 0 0 0 0 0 0 0 0 0 0 0 0 0 0 0 0 0 0 0 0 0 3 0 3 3 0 0 0 0 0 0 0 0 0 0 0 0 0 0 0 0 0 0
0 0 0 0 0 0 0 0 0 0 0 0 0 0 0 0 0 0 0 0 0 0 0 3 3 3 3 0 0 0 0 0 0 0 0 0 0 0 0 0 0 0 0 0
0 0 0 0 0 0 0 0 0 0 0 0 0 0 0 0 0 0 0 0 0 0 0 0 0 3 3 0 0 0 0 0 0 0 0 0 0 0 0 0 0 0 0 0
0 0 0 0 0 0 0 0 0 0 0 0 0 0 0 0 0 0 0 0 0 0 0 0 0 0 0 0 0 0 0 0 0 0 0 0 0 0 0 0 0 0 0 0
0 0 0 0 0 0 0 0 0 0 0 0 0 0 0 0 0 0 0 0 0 0 0 0 0 0 0 0 0 0 0 0 0 0 0 0 0 0 0 0 0 0 0 0
0 0 0 0 0 0 0 0 0 0 0 0 0 0 0 0 0 0 0 0 0 0 0 0 0 0 0 0 0 0 0 0 0 0 0 0 0 0 0 0 0 0 0 0
0 0 0 0 0 0 0 0 0 0 0 0 0 0 0 0 0 0 0 0 0 0 0 0 0 0 0 0 0 0 0 0 0 0 0 0 0 0 0 0 0 0 0 0
0 0 0 0 0 0 0 0 0 0 0 0 0 0 0 0 0 0 0 0 0 0 0 0 0 0 0 0 0 0 0 0 0 0 0 0 0 0 0 0 0 0 0 0
0 0 0 0 0 0 0 0 0 0 0 0 0 0 0 0 0 0 0 0 0 0 0 0 0 0 0 0 0 0 0 0 0 0 0 0 0 0 0 0 0 0 0 0
0 0 0 0 0 0 0 0 0 0 0 0 0 0 0 0 0 0 0 0 0 0 0 0 0 0 0 0 0 0 0 0 0 0 0 0 0 0 0 0 0 0 0 0
0 0 0 0 0 0 0 0 0 0 0 0 0 0 0 0 0 0 0 0 0 0 0 0 0 0 0 0 0 0 0 0 0 0 0 0 0 0 0 0 0 0 0 0
0 0 0 0 0 0 0 0 0 0 0 0 0 0 0 0 0 0 0 0 0 0 0 0 0 0 0 0 0 0 0 0 0 0 0 0 0 0 0 0 0 0 0 0
Height
5816 5818 5818 5819 5820 5821 5823 5825 5826 5828 5830 5832 5834 5836 5839 5841 5843 5846 5848 5851 5853 5855 5858 5860 5862 5865 5867 5869 5871 5873 5874 5875 5876 5877 5878 5879 5879 5879 5879 5878 5878 5877 5876 5875
5816 5816 5817 5817 5818 5820 5821 5823 5825 5827 5828 5830 5832 5834 5837 5839 5841 5844 5846 5849 5851 5854 5856 5858 5860 5863 5865 5867 5869 5871 5872 5874 5875 5876 5877 5877 5878 5878 5878 5877 5877 5876 5875 5874
5814 5816 5815 5816 5817 5818 5820 5822 5824 5825 5827 5829 5831 5833 5835 5837 5839 5842 5844 5846 5849 5851 5854 5856 5858 5861 5863 5865 5867 5869 5871 5872 5874 5875 5875 5876 5876 5876 5876 5876 5876 5875 5874 5873
5813 5814 5814 5815 5816 5817 5819 5821 5822 5824 5826 5827 5830 5832 5834 5835 5837 5840 5842 5844 5847 5849 5851 5854 5856 5859 5861 5863 5866 5868 5869 5871 5872 5873 5874 5874 5875 5875 5875 5875 5875 5874 5873 5873
5813 5813 5813 5814 5816 5817 5818 5819 5821 5823 5824 5826 5828 5830 5833 5834 5836 5838 5840 5842 5844 5847 5849 5852 5854 5857 5859 5861 5864 5865 5867 5869 5870 5871 5872 5873 5873 5874 5874 5874 5874 5873 5873 5872
5812 5812 5813 5814 5814 5815 5817 5819 5820 5821 5823 5825 5826 5828 5831 5832 5834 5836 5838 5840 5842 5845 5847 5850 5852 5854 5857 5859 5861 5863 5865 5867 5868 5869 5870 5871 5872 5872 5872 5872 5873 5872 5872 5872
5811 5812 5812 5813 5813 5814 5816 5818 5819 5820 5822 5824 5825 5826 5830 5831 5833 5835 5837 5838 5840 5842 5845 5847 5850 5852 5855 5857 5859 5861 5863 5865 5866 5867 5868 5869 5870 5870 5871 5871 5871 5871 5871 5871
5810 5811 5811 5812 5813 5814 5815 5817 5819 5820 5821 5822 5823 5825 5828 5829 5830 5832 5834 5836 5838 5840 5843 5845 5847 5850 5852 5855 5857 5859 5861 5862 5864 5865 5866 5867 5868 5869 5869 5870 5870 5870 5870 5870
5809 5810 5811 5811 5812 5813 5814 5815 5817 5818 5819 5821 5822 5825 5826 5827 5829 5830 5832 5834 5836 5838 5840 5842 5844 5847 5849 5852 5854 5856 5858 5860 5862 5863 5864 5865 5866 5867 5867 5868 5868 5868 5868 5868
5808 5809 5810 5810 5811 5812 5813 5814 5815 5817 5818 5819 5821 5823 5825 5825 5827 5829 5831 5832 5834 5836 5838 5839 5842 5844 5846 5849 5851 5854 5855 5857 5859 5861 5862 5863 5864 5865 5866 5866 5867 5867 5867 5867
5806 5808 5808 5809 5809 5810 5812 5813 5813 5815 5816 5818 5819 5823 5822 5823 5825 5826 5828 5830 5832 5834 5835 5837 5839 5841 5844 5846 5849 5851 5853 5855 5856 5858 5860 5861 5862 5863 5864 5864 5865 5866 5866 5866
5804 5806 5806 5807 5808 5808 5810 5811 5812 5814 5814 5815 5817 5822 5820 5821 5822 5824 5826 5828 5829 5831 5833 5834 5836 5838 5841 5843 5846 5848 5850 5852 5854 5856 5857 5859 5860 5861 5862 5863 5863 5864 5864 5865
5803 5804 5805 5805 5808 5808 5808 5809 5810 5811 5812 5813 5814 5819 5818 5819 5820 5821 5823 5825 5827 5828 5830 5832 5833 5836 5838 5841 5843 5845 5847 5849 5851 5853 5855 5856 5858 5859 5860 5861 5861 5862 5862 5863
5801 5801 5803 5804 5804 5804 5805 5807 5807 5808 5809 5810 5812 5813 5815 5815 5817 5819 5820 5822 5824 5825 5827 5829 5831 5833 5836 5838 5840 5842 5844 5846 5848 5850 5852 5853 5855 5856 5857 5858 5859 5859 5860 5860
5798 5799 5799 5801 5801 5802 5803 5804 5805 5806 5807 5808 5809 5809 5811 5812 5813 5815 5817 5819 5821 5822 5824 5826 5828 5830 5832 5834 5836 5839 5841 5843 5844 5846 5849 5850 5852 5853 5854 5855 5856 5857 5857 5857
5794 5796 5797 5798 5799 5799 5800 5801 5802 5803 5804 5805 5806 5807 5808 5809 5810 5811 5813 5815 5817 5819 5821 5823 5825 5827 5829 5831 5833 5835 5837 5839 5841 5843 5845 5847 5848 5850 5851 5852 5853 5853 5854 5854
5791 5793 5794 5795 5796 5797 5798 5799 5800 5801 5802 5803 5803 5805 5805 5806 5806 5808 5809 5811 5814 5816 5818 5820 5822 5824 5825 5827 5829 5831 5834 5836 5838 5840 5842 5843 5845 5846 5847 5848 5849 5850 5850 5851
5788 5789 5790 5792 5794 5795 5798 5796 5797 5798 5799 5800 5800 5801 5802 5803 5803 5804 5806 5807 5810 5812 5814 5816 5818 5820 5822 5824 5826 5828 5830 5832 5834 5836 5838 5840 5841 5842 5843 5844 5845 5846 5846 5846
5784 5786 5787 5788 5789 5791 5793 5793 5794 5795 5796 5796 5797 5798 5798 5799 5800 5801 5802 5804 5806 5808 5810 5813 5815 5817 5819 5821 5823 5825 5827 5829 5831 5832 5834 5836 5837 5838 5839 5840 5841 5841 5842 5842
5780 5782 5783 5784 5785 5787 5791 5790 5790 5792 5793 5793 5793 5794 5795 5795 5797 5798 5799 5800 5802 5804 5807 5809 5811 5813 5815 5817 5819 5821 5823 5825 5827 5829 5830 5831 5833 5834 5835 5836 5836 5837 5837 5837
5776 5777 5779 5780 5781 5784 5786 5786 5788 5790 5791 5790 5790 5791 5791 5792 5794 5795 5795 5797 5799 5801 5803 5806 5808 5810 5811 5813 5815 5817 5819 5821 5823 5824 5826 5827 5828 5829 5830 5831 5832 5832 5832 5832
5772 5773 5775 5776 5778 5782 5782 5783 5784 5785 5785 5786 5786 5787 5788 5789 5790 5791 5792 5794 5796 5798 5800 5802 5804 5806 5808 5809 5811 5813 5815 5817 5818 5820 5821 5822 5823 5824 5825 5825 5826 5826 5826 5826
5767 5770 5771 5773 5776 5776 5777 5778 5779 5780 5781 5782 5783 5783 5784 5785 5786 5788 5789 5791 5792 5795 5797 5799 5801 5802 5804 5805 5807 5809 5811 5812 5814 5815 5816 5817 5818 5818 5819 5820 5820 5820 5820 5820
5763 5765 5766 5768 5770 5771 5772 5774 5775 5776 5777 5778 5779 5780 5781 5781 5783 5784 5785 5787 5789 5791 5793 5795 5797 5798 5800 5801 5803 5804 5805 5807 5808 5809 5810 5811 5812 5812 5813 5813 5813 5814 5814 5814
5758 5759 5761 5763 5765 5766 5767 5769 5770 5771 5773 5774 5775 5776 5777 5778 5779 5780 5782 5783 5785 5787 5789 5791 5792 5794 5795 5796 5797 5799 5800 5801 5803 5803 5804 5805 5805 5806 5806 5807 5807 5807 5807 5807
5752 5754 5756 5758 5760 5761 5763 5764 5765 5767 5768 5769 5771 5772 5773 5774 5775 5776 5777 5779 5781 5783 5784 5786 5787 5789 5790 5791 5792 5793 5794 5795 5796 5797 5798 5798 5799 5799 5800 5800 5800 5799 5800 5799
Wind_Speed
6 6 7 7 8 9 10 11 11 12 11 12 12 13 15 16 16 16 15 14 15 15 14 14 14 13 13 13 11 10 9 8 7 7 6 5 4 4 4 4 4 5 5 5
7 7 7 8 8 9 10 11 11 12 12 12 13 13 15 16 17 16 16 16 16 15 15 15 15 14 14 13 12 11 10 9 7 7 7 6 5 4 3 3 4 4 4 4
7 6 7 8 9 9 9 10 11 12 12 13 13 13 13 15 16 16 16 16 16 16 15 15 15 15 15 14 13 12 10 10 8 7 7 6 5 4 3 3 3 3 3 4
6 7 7 8 9 9 10 10 10 11 11 12 12 12 13 14 15 15 15 17 16 16 16 16 16 16 16 15 14 13 11 10 9 8 7 6 6 5 4 3 3 3 3 3
6 7 7 8 8 9 10 10 10 10 11 11 12 12 13 14 14 14 15 16 16 17 16 16 16 17 17 15 15 13 13 11 10 8 7 7 6 5 5 3 3 2 2 2
6 6 7 7 8 8 10 10 10 10 10 10 11 11 12 13 13 14 15 15 16 16 17 17 17 17 17 16 15 14 13 11 10 9 8 7 7 6 5 4 3 3 2 2
5 5 6 7 7 7 8 10 10 10 10 10 10 11 11 12 13 14 14 14 15 16 17 16 17 17 17 16 15 15 13 12 11 10 9 8 7 7 6 5 4 4 3 2
5 5 5 6 6 7 8 9 10 10 10 9 10 10 11 13 13 14 14 14 15 16 16 16 17 18 17 17 16 16 14 13 11 11 10 9 7 7 7 6 5 4 4 3
6 5 5 6 6 7 8 9 9 9 9 9 9 9 10 12 13 14 14 14 15 15 16 16 16 17 17 17 17 17 16 14 13 12 11 9 8 8 7 7 6 5 4 4
7 7 6 6 7 7 8 8 9 9 9 9 8 8 10 12 13 13 14 15 15 15 15 15 16 18 18 18 18 17 16 15 14 13 11 10 9 8 8 8 7 5 5 4
8 7 7 8 8 8 9 9 9 9 10 10 9 8 9 10 12 12 14 14 15 15 15 16 17 17 18 18 18 18 16 15 14 13 12 11 11 9 8 8 7 6 6 5
8 8 7 8 8 9 10 10 10 10 10 10 10 9 10 10 11 12 14 14 14 14 15 16 17 18 18 18 18 17 16 16 15 14 13 13 11 10 9 9 8 7 7 7
9 9 8 9 9 10 11 10 10 11 11 10 10 9 10 11 12 13 13 14 14 14 15 16 17 18 19 18 17 17 15 16 16 15 14 14 12 11 10 10 9 9 9 9
10 10 10 10 9 10 10 10 11 11 11 10 10 10 11 12 14 14 14 14 14 14 15 16 18 18 18 18 18 17 15 16 17 17 16 15 14 12 12 12 11 10 10 10
12 11 10 10 11 11 10 10 10 10 9 9 9 10 11 13 14 15 15 15 15 15 15 16 17 18 18 18 18 17 16 16 16 17 16 16 15 14 13 13 13 12 12 12
12 12 11 11 12 12 11 11 10 10 9 9 9 9 11 12 13 14 15 15 16 16 16 16 16 17 18 19 19 18 18 17 16 16 17 17 16 15 15 15 14 14 14 14
13 12 12 12 13 12 11 11 12 11 10 10 10 10 11 12 13 14 14 15 16 16 16 16 16 16 17 17 18 19 19 18 17 17 17 17 17 17 16 16 16 16 16 15
14 13 13 13 13 13 11 12 12 13 12 12 11 11 12 12 14 15 15 15 16 16 16 16 16 16 16 17 17 18 19 19 18 18 18 18 18 17 17 17 17 17 17 17
16 15 14 15 14 13 12 12 13 13 12 12 12 12 12 13 13 14 15 14 15 16 16 16 16 16 16 17 18 18 19 18 18 17 17 18 18 17 17 18 18 18 18 17
17 16 16 15 15 13 12 13 13 13 13 13 12 12 13 13 13 13 15 15 15 16 15 16 17 16 16 17 18 18 18 18 18 18 18 18 18 19 19 19 19 19 18 18
17 17 17 16 15 13 13 13 13 14 13 13 13 13 13 12 12 13 14 15 15 15 16 16 16 16 16 17 18 18 18 19 19 19 19 19 19 20 20 20 21 21 20 21
18 18 17 17 15 14 14 13 13 13 14 14 14 14 14 13 13 14 14 15 15 16 16 17 17 17 17 17 17 18 19 19 20 20 21 20 20 21 21 21 22 22 22 22
18 17 17 16 16 15 15 15 14 14 15 15 15 15 15 15 14 15 15 15 16 16 17 17 17 17 17 17 18 19 20 20 21 22 22 22 22 23 22 22 22 23 23 23
20 18 18 17 16 17 17 17 16 16 15 15 15 15 15 15 15 16 16 17 17 17 17 17 18 18 18 18 19 20 21 22 22 23 24 24 24 23 23 23 23 23 23 23
21 20 19 18 17 18 18 18 18 18 17 16 16 15 15 15 16 17 17 17 17 18 18 18 19 19 19 20 20 20 21 22 23 23 24 24 24 24 24 24 24 23 24 24
22 22 21 20 19 19 18 19 19 19 19 17 16 16 17 17 17 17 17 17 17 17 18 19 19 19 19 19 20 20 21 22 23 24 24 24 24 24 24 25 25 25 26 27
Wind_Direction
257 253 243 234 228 224 220 220 222 224 224 223 220 217 212 209 207 206 209 206 203 204 200 201 201 202 201 201 201 206 212 212 218 227 235 250 263 283 298 308 317 326 336 341
253 252 242 234 225 222 220 216 218 221 218 217 216 215 213 210 208 206 208 206 204 207 203 204 204 206 206 206 205 208 212 214 219 230 242 253 261 271 287 301 314 322 335 343
257 251 242 233 226 222 217 213 215 216 215 217 218 219 213 210 208 209 210 209 206 206 204 206 205 208 210 208 207 209 214 217 220 228 241 251 251 254 269 289 305 319 335 343
256 245 236 231 227 226 217 214 216 218 218 217 217 218 215 215 212 210 211 208 206 206 205 206 206 207 208 208 209 211 214 218 224 228 235 244 245 247 258 273 293 313 326 342
261 243 233 231 232 228 220 220 219 222 221 220 222 222 215 216 213 211 211 210 207 209 208 208 209 209 209 210 211 212 217 219 223 229 233 238 240 244 249 260 277 291 309 334
259 242 232 232 231 224 223 222 221 223 222 219 221 221 211 213 211 213 215 213 212 211 212 212 211 209 209 211 212 216 220 221 224 228 232 235 235 242 243 245 257 271 281 298
250 247 238 229 224 221 224 222 219 220 221 219 219 218 210 213 213 214 216 213 214 214 214 214 213 211 211 213 215 218 220 222 224 227 231 232 231 237 239 238 246 254 262 272
247 245 235 229 230 227 228 225 223 223 222 217 217 218 215 216 215 212 214 216 216 215 215 216 214 213 212 214 216 218 219 221 224 226 227 230 230 233 233 235 235 242 250 262
243 244 232 229 229 230 226 222 222 223 221 217 219 219 218 218 217 216 218 220 219 218 219 221 219 216 216 217 219 219 220 222 224 227 226 228 231 236 235 236 234 239 249 261
245 243 233 231 236 234 224 221 220 223 224 222 219 221 218 222 222 223 223 222 221 221 223 221 221 219 216 216 217 218 220 220 222 224 226 230 235 236 238 236 235 240 251 263
245 243 238 237 236 229 223 225 228 233 232 230 225 223 222 224 225 226 226 223 222 224 225 223 221 217 216 216 217 219 220 221 221 222 225 230 234 236 236 235 235 238 247 260
245 246 246 244 236 232 233 235 237 240 239 238 235 228 225 225 223 224 224 222 222 225 224 224 221 217 216 216 218 220 223 222 222 225 228 230 231 232 233 233 236 240 248 256
243 246 251 249 246 242 239 241 244 244 242 243 240 236 231 230 227 224 223 223 223 224 224 223 221 218 217 217 219 222 225 224 224 228 230 231 233 233 235 238 239 244 250 255
244 249 251 253 252 245 240 246 248 250 246 245 245 241 236 235 230 228 227 227 227 225 224 223 222 220 220 220 221 225 228 228 227 228 229 232 234 236 239 241 242 245 251 257
245 248 247 246 248 252 250 252 252 248 244 244 243 238 234 237 233 232 232 231 231 228 226 224 221 223 224 224 226 225 229 231 228 228 230 233 235 238 241 244 246 249 256 259
241 243 246 249 251 255 256 255 254 249 245 245 245 240 241 243 236 233 232 233 233 230 229 226 224 226 227 228 228 227 228 229 229 230 232 234 235 239 243 245 249 252 256 260
239 243 247 250 252 254 252 253 250 248 247 248 250 245 241 239 238 238 237 234 232 229 228 227 227 229 228 229 230 228 229 229 230 232 233 235 239 243 246 246 249 255 259 262
242 247 251 252 250 251 250 248 247 249 251 253 252 246 245 240 240 240 239 236 233 229 227 227 229 229 226 227 228 229 228 230 232 233 235 237 242 246 246 248 251 257 261 263
245 249 253 256 254 247 244 246 247 248 250 254 249 248 250 247 245 242 238 234 232 230 229 228 227 227 228 229 229 229 230 234 237 238 240 241 243 247 250 251 254 258 262 263
247 251 253 256 254 247 245 247 248 249 251 251 250 248 249 250 246 240 235 230 229 228 229 228 228 230 233 233 232 232 233 236 240 243 245 245 246 250 252 254 255 258 263 265
245 249 253 253 252 249 248 251 252 250 249 249 251 248 248 246 244 240 234 227 227 227 227 228 232 235 235 235 235 235 237 239 241 245 249 249 251 252 255 256 257 261 264 266
247 250 252 251 249 247 246 249 250 248 246 248 249 249 249 246 243 240 234 230 228 228 229 232 236 237 237 237 238 238 239 240 244 247 251 252 253 256 259 259 260 263 266 267
247 250 251 249 249 245 246 249 249 245 245 248 252 253 252 246 244 240 236 234 232 230 231 234 235 236 238 239 240 241 241 243 248 251 253 254 255 257 259 261 263 264 266 268
247 249 248 247 247 246 247 249 248 246 248 250 253 254 252 248 244 241 239 237 236 237 238 239 239 240 242 244 244 243 244 246 251 253 255 256 256 257 260 262 264 265 266 269
246 247 247 246 245 247 248 248 247 248 249 251 253 252 250 248 245 242 242 241 240 241 243 244 244 245 248 249 250 248 246 249 252 255 255 256 257 257 258 262 264 265 267 269
244 245 247 248 248 249 249 248 248 248 247 249 249 249 250 248 244 243 244 245 243 243 245 248 249 248 250 252 254 253 252 254 256 257 257 256 258 257 259 263 265 267 268 270